Vorticity
10 -1 -11 -2 15 12 20 28 24 16 -3 6 10 10 8 8 11 17 16 15 14 14 15 13 5 -7 11 1 -8 13 7 -1 0 9 5 4 6 6 8 9 9 9 9 9
16 13 -13 -2 4 24 7 9 3 18 -4 5 8 8 9 11 12 11 13 13 16 13 13 14 14 14 17 11 8 9 23 11 13 8 6 6 6 5 8 9 8 8 9 10
12 0 21 3 4 3 8 11 3 7 10 8 11 11 10 12 11 7 12 13 11 11 14 14 13 11 15 9 12 15 5 9 8 7 7 6 7 7 9 6 8 10 11 13
5 25 8 2 5 6 6 9 14 15 6 6 8 9 9 7 12 16 13 6 9 11 13 13 13 15 14 13 15 12 13 11 12 9 8 9 9 9 8 6 9 9 8 9
12 12 8 6 -1 14 7 -3 10 12 15 15 18 15 10 7 5 10 14 17 14 9 9 12 11 10 11 13 13 14 13 11 12 9 11 11 10 9 7 8 8 7 9 8
10 14 15 -4 17 13 12 16 4 9 10 12 15 16 20 15 13 10 9 14 17 14 12 9 9 14 13 11 8 9 12 12 12 12 11 9 9 8 7 7 7 6 8 8
10 12 9 0 9 18 8 -2 8 9 8 9 9 12 16 14 14 14 15 13 13 15 15 16 15 11 7 11 14 15 12 9 10 10 9 9 8 7 7 6 7 8 8 9
14 12 13 -4 16 14 -2 9 9 10 10 9 8 9 9 10 12 13 14 16 14 14 16 15 15 14 18 16 10 7 10 14 14 11 12 10 7 10 10 9 9 9 9 8
9 -12 13 4 4 10 6 7 9 8 9 9 9 10 9 10 10 10 10 11 12 11 13 16 16 15 15 16 18 20 18 11 9 10 12 12 13 10 10 9 9 9 8 9
20 -4 14 13 20 12 12 13 11 10 9 9 10 11 10 10 10 10 11 10 11 11 10 11 12 15 14 14 13 14 16 18 17 16 16 13 11 9 10 11 11 9 9 9
16 15 8 14 13 14 13 13 12 11 11 10 11 10 10 11 12 10 9 10 11 10 11 11 11 11 13 13 14 15 13 14 16 16 14 18 15 14 13 11 10 10 12 8
10 13 10 10 9 10 11 12 13 12 12 12 10 10 10 9 9 9 10 10 10 10 10 11 11 12 11 11 11 13 12 13 14 15 17 14 14 17 14 16 12 11 12 12
19 18 12 9 8 10 12 13 11 10 11 10 10 8 8 8 9 8 8 8 9 9 9 10 9 11 11 12 12 12 12 12 13 14 13 16 16 15 15 14 14 17 13 13
10 19 18 9 9 7 9 13 16 18 17 14 10 9 8 8 7 7 6 7 8 9 10 9 9 10 9 10 10 11 11 12 12 12 13 12 12 15 14 16 18 11 13 14
20 8 16 16 10 7 5 4 4 4 5 9 13 17 18 17 14 10 8 8 9 9 9 10 11 11 11 10 10 11 10 12 12 11 12 12 13 13 13 14 15 17 16 14
22 18 6 11 15 10 5 3 2 3 3 3 4 5 6 9 15 16 15 13 11 10 9 11 11 11 12 11 10 10 9 10 12 11 12 13 12 12 13 13 10 12 15 14
17 23 16 8 6 13 9 5 5 5 5 6 7 7 6 6 7 11 13 13 15 13 11 11 11 11 11 12 12 12 12 11 11 11 10 11 12 13 13 13 14 13 10 12
18 24 26 18 11 5 8 11 9 8 7 6 8 9 9 10 11 8 10 13 11 12 12 13 12 11 11 11 11 11 12 12 12 12 11 10 11 11 12 13 13 14 13 12
17 22 20 24 20 13 8 6 7 7 8 7 8 10 11 12 13 11 10 12 13 11 10 11 12 13 12 12 11 10 11 11 11 12 12 12 12 11 11 10 12 15 13 12
15 21 20 20 19 21 17 12 9 8 8 7 10 13 13 13 11 9 11 14 14 12 10 11 11 12 13 13 13 13 13 12 12 12 12 12 12 12 12 11 11 11 14 15
15 21 19 20 19 17 17 17 15 13 13 16 16 14 12 11 12 15 17 16 13 13 11 11 13 14 15 15 14 14 13 12 12 13 12 12 13 13 12 13 12 11 12 11
15 19 18 17 17 18 18 17 17 17 16 14 14 15 16 17 15 13 13 12 13 14 15 15 15 17 16 14 12 11 11 11 12 12 13 13 13 13 13 13 13 13 12 13
15 18 16 15 14 14 14 14 14 14 14 14 14 13 14 16 17 17 16 14 15 16 15 16 17 13 11 8 8 9 10 11 11 11 10 10 11 11 12 13 14 14 13 13
16 17 15 14 14 15 15 15 15 15 14 13 12 11 12 13 13 11 11 11 11 11 11 13 13 11 9 9 8 7 6 6 6 7 8 10 10 10 9 10 11 13 15 14
16 16 14 15 14 12 11 11 11 11 11 12 12 13 14 14 16 17 17 16 16 16 15 14 12 11 10 11 10 10 9 9 9 9 10 11 12 11 11 11 10 10 12 14
15 15 15 12 11 10 10 11 12 12 13 14 13 14 14 14 14 15 16 16 17 17 18 18 18 18 18 18 18 17 16 15 14 13 13 13 13 12 12 12 13 12 11 12
15 15 15 11 10 10 10 10 12 13 12 13 13 11 11 11 11 12 11 11 11 11 12 12 12 12 13 14 15 16 17 17 16 15 15 15 14 14 13 12 12 12 12 11
Height
2992 2991 2990 2987 2983 2978 2973 2972 2973 2977 2975 2977 2978 2980 2982 2983 2985 2988 2990 2993 2997 3001 3006 3011 3016 3016 3024 3032 3041 3041 3056 3062 3069 3074 3080 3086 3090 3095 3099 3102 3106 3110 3113 3117
2992 2990 2989 2986 2983 2981 2979 2977 2978 2978 2977 2978 2980 2982 2983 2984 2985 2987 2989 2991 2994 2998 3001 3005 3010 3016 3022 3025 3034 3033 3041 3051 3058 3065 3071 3077 3082 3086 3090 3093 3097 3100 3104 3107
2992 2990 2988 2989 2985 2984 2982 2981 2982 2983 2983 2982 2982 2982 2983 2983 2984 2985 2987 2989 2992 2995 2998 3001 3006 3010 3015 3020 3025 3030 3035 3041 3048 3055 3062 3068 3073 3077 3081 3085 3088 3091 3094 3098
2992 2989 2987 2990 2987 2985 2984 2984 2984 2984 2982 2980 2981 2982 2982 2983 2982 2982 2985 2987 2989 2991 2994 2997 3001 3005 3009 3014 3019 3023 3028 3034 3039 3045 3052 3057 3062 3067 3071 3075 3079 3082 3085 3089
2993 2991 2992 2990 2989 2987 2986 2986 2984 2982 2979 2979 2980 2980 2980 2980 2981 2981 2982 2983 2985 2988 2990 2993 2997 3000 3004 3008 3012 3017 3021 3026 3031 3036 3042 3047 3052 3056 3060 3064 3068 3072 3075 3079
2993 2991 2989 2991 2988 2987 2987 2987 2984 2981 2980 2980 2979 2978 2977 2977 2977 2979 2979 2980 2981 2983 2985 2987 2991 2994 2998 3001 3005 3010 3015 3019 3023 3027 3032 3036 3041 3045 3049 3054 3057 3061 3065 3068
2993 2992 2991 2990 2988 2987 2988 2991 2983 2981 2980 2979 2978 2977 2976 2975 2975 2975 2976 2977 2977 2978 2979 2981 2984 2987 2991 2995 2998 3002 3006 3011 3015 3019 3022 3026 3031 3035 3039 3043 3047 3051 3055 3058
2994 2992 2992 2989 2987 2988 2986 2983 2981 2979 2978 2976 2975 2974 2974 2974 2974 2974 2974 2973 2973 2974 2975 2977 2979 2981 2984 2988 2990 2993 2997 3001 3005 3009 3013 3017 3020 3024 3028 3032 3036 3040 3044 3047
2997 2993 2989 2987 2985 2984 2982 2980 2979 2977 2976 2975 2974 2973 2973 2972 2972 2972 2971 2971 2970 2971 2972 2973 2974 2976 2978 2980 2983 2985 2988 2991 2995 2999 3003 3006 3010 3013 3017 3021 3024 3028 3032 3036
2992 2989 2986 2984 2982 2980 2979 2977 2976 2975 2974 2973 2973 2971 2970 2970 2970 2969 2969 2968 2968 2969 2970 2970 2970 2971 2973 2974 2976 2978 2980 2983 2986 2989 2992 2996 3000 3003 3006 3010 3013 3016 3020 3023
2988 2986 2983 2981 2979 2978 2976 2974 2973 2972 2971 2970 2969 2969 2968 2967 2966 2965 2965 2965 2966 2967 2966 2966 2966 2967 2968 2968 2969 2971 2973 2975 2977 2980 2982 2985 2989 2992 2995 2997 3001 3005 3008 3010
2984 2982 2980 2978 2976 2975 2973 2972 2970 2969 2968 2967 2966 2965 2964 2964 2963 2962 2963 2963 2963 2963 2962 2962 2963 2962 2963 2964 2964 2965 2967 2968 2969 2971 2973 2976 2978 2981 2984 2986 2988 2991 2994 2998
2981 2978 2977 2975 2973 2971 2970 2968 2967 2966 2965 2964 2963 2962 2961 2961 2960 2960 2960 2959 2959 2959 2959 2958 2958 2957 2958 2958 2958 2958 2960 2961 2961 2962 2965 2967 2969 2972 2973 2976 2978 2979 2982 2985
2978 2975 2973 2971 2969 2968 2966 2964 2963 2962 2961 2961 2960 2959 2958 2957 2956 2956 2955 2954 2954 2953 2953 2953 2952 2952 2952 2952 2952 2953 2953 2953 2954 2955 2956 2958 2960 2961 2963 2965 2967 2969 2971 2973
2974 2971 2968 2966 2965 2964 2962 2961 2960 2958 2957 2956 2955 2954 2953 2952 2951 2950 2948 2947 2947 2947 2946 2945 2946 2945 2946 2946 2946 2946 2947 2946 2946 2947 2948 2949 2951 2952 2954 2957 2958 2959 2959 2962
2968 2965 2963 2961 2960 2958 2957 2956 2955 2954 2952 2951 2950 2948 2947 2945 2944 2943 2942 2940 2940 2940 2938 2938 2938 2937 2938 2938 2938 2938 2938 2938 2939 2940 2941 2941 2941 2943 2945 2946 2947 2949 2951 2951
2961 2958 2955 2954 2953 2952 2951 2950 2949 2949 2947 2946 2944 2942 2940 2938 2937 2936 2934 2933 2933 2932 2931 2930 2930 2930 2930 2931 2931 2932 2931 2931 2932 2932 2931 2933 2934 2934 2935 2935 2938 2940 2941 2942
2954 2950 2947 2945 2945 2945 2944 2943 2942 2941 2940 2939 2937 2935 2933 2931 2930 2928 2927 2925 2924 2924 2924 2923 2923 2922 2922 2922 2922 2922 2922 2923 2923 2923 2924 2924 2925 2925 2926 2926 2928 2929 2930 2932
2948 2943 2940 2937 2936 2935 2936 2935 2934 2933 2932 2930 2929 2928 2926 2924 2922 2920 2919 2918 2916 2915 2915 2914 2915 2914 2914 2913 2913 2913 2914 2913 2913 2914 2915 2916 2916 2917 2918 2918 2919 2919 2920 2921
2942 2937 2933 2930 2928 2927 2927 2927 2926 2925 2924 2922 2920 2919 2917 2915 2913 2912 2911 2910 2908 2907 2907 2906 2905 2905 2905 2905 2904 2904 2904 2904 2905 2905 2906 2906 2907 2908 2908 2909 2909 2910 2911 2912
2937 2932 2928 2925 2922 2920 2919 2918 2917 2916 2915 2913 2912 2910 2908 2907 2905 2903 2902 2901 2900 2899 2898 2897 2897 2896 2896 2895 2895 2896 2896 2896 2896 2896 2897 2897 2898 2898 2898 2899 2900 2901 2901 2901
2932 2927 2922 2920 2917 2915 2913 2911 2910 2908 2907 2905 2903 2901 2900 2898 2896 2895 2893 2892 2892 2890 2890 2889 2888 2888 2888 2888 2887 2887 2887 2887 2888 2888 2888 2888 2888 2888 2889 2889 2889 2890 2891 2893
2926 2922 2918 2915 2912 2910 2908 2906 2904 2902 2900 2898 2896 2894 2892 2891 2889 2887 2886 2884 2883 2882 2881 2880 2880 2880 2880 2879 2880 2880 2881 2881 2880 2880 2879 2879 2879 2879 2880 2880 2880 2881 2882 2882
2921 2917 2914 2911 2909 2906 2904 2901 2899 2897 2895 2892 2890 2888 2886 2884 2883 2880 2878 2877 2876 2874 2873 2872 2872 2872 2871 2871 2871 2872 2871 2871 2871 2871 2871 2870 2869 2869 2869 2869 2869 2870 2871 2871
2916 2913 2910 2907 2905 2902 2900 2897 2895 2892 2889 2887 2884 2882 2879 2877 2876 2874 2871 2869 2868 2866 2865 2864 2863 2862 2861 2861 2860 2860 2860 2860 2860 2860 2859 2859 2859 2859 2858 2858 2859 2860 2861 2862
2911 2908 2905 2903 2901 2899 2896 2893 2891 2887 2885 2882 2879 2876 2874 2871 2869 2866 2864 2862 2860 2858 2856 2855 2853 2852 2850 2850 2848 2847 2847 2846 2846 2846 2846 2847 2847 2848 2848 2849 2850 2850 2851 2852
2907 2904 2901 2899 2897 2894 2891 2889 2886 2882 2879 2877 2874 2871 2869 2866 2864 2861 2859 2857 2854 2852 2849 2847 2845 2843 2841 2839 2837 2836 2835 2834 2834 2833 2833 2833 2834 2836 2837 2838 2839 2841 2842 2844